Naples, FL

1:50 PM EDT on May 27, 2017 (GMT -0400)
Naples Municipal

Weather History for KAPF - March, 2014

Change the Weather History Date:

Thursday, March 13, 2014

  Actual Average Record
Temperature  
Mean Temperature 68 °F 70 °F  
Max Temperature 75 °F 80 °F 89 °F (1963)
Min Temperature 57 °F 60 °F 42 °F (1998)
Degree Days  
Heating Degree Days 0 1  
Month to date heating degree days 13  
Since 1 July heating degree days 246  
Cooling Degree Days 4 5  
Month to date cooling degree days 65  
Year to date cooling degree days 256  
Growing Degree Days 18 (Base 50)    
Moisture  
Dew Point 52 °F    
Average Humidity 56    
Maximum Humidity 97    
Minimum Humidity 27    
Precipitation  
Precipitation 0.00 in 0.07 in 1.85 in (1984)
Month to date precipitation 0.90  
Year to date precipitation 4.85  
Snow  
Snow 0.00 in - - ()
Month to date snowfall  
Since 1 July snowfall  
Snow Depth -    
Sea Level Pressure  
Sea Level Pressure 30.02 in    
Wind  
Wind Speed 10 mph (NNW)    
Max Wind Speed 15 mph    
Max Gust Speed 23 mph    
Visibility 10 miles    
Events      
T = Trace of Precipitation, MM = Missing Value Source: NWS Daily Summary

Daily Weather History Graph

Daily Weather History Graph

Search for Another Location

Airport or City:

Trip Planner

Search our weather history database for the weather conditions in past years. The results will help you decide how hot, cold, wet, or windy it might be!

Date:

Astronomy

Mar. 13, 2014 Rise Set
Actual Time 7:38 AM EDT 7:34 PM EDT
Civil Twilight 7:15 AM EDT 7:58 PM EDT
Nautical Twilight 6:48 AM EDT 8:24 PM EDT
Astronomical Twilight 6:21 AM EDT 8:51 PM EDT
Moon 5:10 PM EDT (3/13) 5:31 AM EDT (3/13)
Length of Visible Light 12h 42m
Length of Day
11h 56m
Waxing Gibbous, 91% of the Moon is Illuminated
Mar 13
Waxing Gibbous
Mar 16
Full
Mar 23
Last Quarter
Mar 30
New
Apr 7
First Quarter

Hourly Weather History & Observations

Time (EDT) Temp. Dew Point Humidity Pressure Visibility Wind Dir Wind Speed Gust Speed Precip Events Conditions
12:53 AM 72.0 °F 71.1 °F 97% 29.90 in 10.0 mi NW 10.4 mph - N/A   Mostly Cloudy
1:02 AM 72.0 °F 68.0 °F 87% 29.90 in 10.0 mi NW 11.5 mph - N/A   Overcast
1:53 AM 71.1 °F 64.9 °F 81% 29.90 in 10.0 mi NW 5.8 mph - N/A   Overcast
2:53 AM 71.1 °F 64.0 °F 78% 29.91 in 10.0 mi NW 10.4 mph 18.4 mph N/A   Mostly Cloudy
3:53 AM 71.1 °F 63.0 °F 75% 29.90 in 10.0 mi NW 11.5 mph 21.9 mph N/A   Overcast
4:53 AM 70.0 °F 61.0 °F 73% 29.91 in 10.0 mi NW 13.8 mph 19.6 mph N/A   Overcast
5:53 AM 70.0 °F 61.0 °F 73% 29.93 in 9.0 mi NW 15.0 mph 23.0 mph N/A   Overcast
6:53 AM 70.0 °F 60.1 °F 71% 29.96 in 10.0 mi NW 13.8 mph 23.0 mph N/A   Overcast
7:53 AM 69.1 °F 61.0 °F 75% 29.99 in 7.0 mi NNW 11.5 mph 17.3 mph N/A   Mostly Cloudy
8:53 AM 68.0 °F 59.0 °F 73% 30.02 in 8.0 mi North 10.4 mph 20.7 mph N/A   Scattered Clouds
9:53 AM 68.0 °F 55.0 °F 63% 30.05 in 10.0 mi North 10.4 mph 19.6 mph N/A   Clear
10:53 AM 69.1 °F 50.0 °F 51% 30.07 in 10.0 mi NNW 10.4 mph - N/A   Clear
11:53 AM 71.1 °F 50.0 °F 47% 30.08 in 10.0 mi NNE 9.2 mph - N/A   Clear
12:53 PM 73.0 °F 48.0 °F 41% 30.08 in 10.0 mi North 11.5 mph - N/A   Clear
1:53 PM 73.0 °F 46.9 °F 39% 30.07 in 10.0 mi NNW 11.5 mph - N/A   Clear
2:53 PM 73.9 °F 42.1 °F 32% 30.06 in 10.0 mi North 10.4 mph 21.9 mph N/A   Clear
3:53 PM 75.0 °F 41.0 °F 29% 30.04 in 10.0 mi North 8.1 mph - N/A   Clear
4:53 PM 75.9 °F 39.9 °F 27% 30.04 in 10.0 mi NNE 11.5 mph - N/A   Clear
5:53 PM 73.0 °F 48.0 °F 41% 30.05 in 10.0 mi WNW 12.7 mph 17.3 mph N/A   Clear
6:53 PM 73.0 °F 37.9 °F 28% 30.06 in 10.0 mi North 6.9 mph - N/A   Clear
7:53 PM 70.0 °F 39.0 °F 32% 30.09 in 10.0 mi North 4.6 mph - N/A   Clear
8:53 PM 66.9 °F 41.0 °F 39% 30.11 in 10.0 mi North 3.5 mph - N/A   Clear
9:53 PM 64.0 °F 41.0 °F 43% 30.13 in 10.0 mi NNE 5.8 mph - N/A   Clear
10:53 PM 62.1 °F 39.9 °F 44% 30.17 in 10.0 mi NE 4.6 mph - N/A   Clear
11:53 PM 57.9 °F 42.1 °F 56% 30.17 in 10.0 mi NE 8.1 mph - N/A   Clear